Precipitable_Water
0.52 0.52 0.48 0.46 0.45 0.45 0.45 0.46 0.48 0.45 0.44 0.45 0.44 0.44 0.44 0.48 0.51 0.51 0.51 0.51 0.50 0.48 0.48 0.47 0.46 0.46 0.46 0.45 0.46 0.45 0.45 0.44 0.44 0.44 0.42 0.40 0.39 0.37 0.36 0.38 0.41 0.42
0.54 0.55 0.55 0.53 0.49 0.48 0.48 0.50 0.50 0.48 0.45 0.45 0.46 0.47 0.49 0.50 0.52 0.52 0.52 0.51 0.50 0.49 0.49 0.48 0.46 0.45 0.45 0.45 0.45 0.44 0.42 0.43 0.42 0.46 0.42 0.40 0.40 0.39 0.37 0.36 0.36 0.39
0.59 0.57 0.54 0.51 0.50 0.49 0.50 0.51 0.51 0.50 0.48 0.47 0.49 0.49 0.49 0.52 0.52 0.54 0.53 0.52 0.51 0.51 0.51 0.50 0.47 0.46 0.46 0.46 0.45 0.42 0.41 0.41 0.41 0.44 0.43 0.41 0.41 0.39 0.40 0.39 0.38 0.36
0.62 0.59 0.56 0.54 0.52 0.51 0.53 0.52 0.52 0.52 0.51 0.49 0.49 0.50 0.51 0.52 0.53 0.52 0.52 0.53 0.52 0.52 0.52 0.50 0.47 0.47 0.47 0.47 0.45 0.42 0.41 0.41 0.42 0.42 0.41 0.42 0.42 0.42 0.40 0.40 0.40 0.38
0.64 0.62 0.60 0.57 0.55 0.54 0.55 0.53 0.52 0.53 0.52 0.52 0.53 0.53 0.52 0.52 0.51 0.51 0.51 0.52 0.52 0.51 0.50 0.48 0.47 0.47 0.47 0.46 0.44 0.41 0.41 0.40 0.41 0.41 0.40 0.39 0.41 0.42 0.42 0.41 0.39 0.38
0.69 0.67 0.64 0.61 0.59 0.57 0.56 0.54 0.55 0.55 0.55 0.54 0.53 0.54 0.54 0.54 0.52 0.50 0.51 0.51 0.51 0.50 0.48 0.46 0.46 0.47 0.47 0.46 0.44 0.42 0.42 0.40 0.41 0.41 0.39 0.39 0.40 0.42 0.42 0.41 0.39 0.38
0.68 0.68 0.65 0.65 0.65 0.63 0.58 0.57 0.57 0.57 0.58 0.57 0.57 0.55 0.55 0.55 0.53 0.51 0.51 0.51 0.50 0.49 0.46 0.45 0.45 0.46 0.47 0.46 0.44 0.42 0.42 0.41 0.40 0.39 0.38 0.37 0.38 0.38 0.39 0.39 0.38 0.38
0.69 0.70 0.68 0.68 0.67 0.66 0.62 0.60 0.59 0.60 0.61 0.61 0.58 0.58 0.58 0.57 0.54 0.52 0.51 0.52 0.50 0.47 0.46 0.46 0.46 0.47 0.47 0.46 0.43 0.42 0.40 0.40 0.39 0.38 0.37 0.36 0.36 0.34 0.35 0.36 0.36 0.35
0.73 0.72 0.70 0.69 0.68 0.68 0.65 0.63 0.63 0.64 0.65 0.62 0.61 0.60 0.61 0.58 0.54 0.52 0.52 0.51 0.48 0.46 0.45 0.45 0.47 0.47 0.48 0.46 0.43 0.41 0.39 0.38 0.39 0.38 0.37 0.36 0.35 0.35 0.35 0.36 0.34 0.34
0.77 0.76 0.73 0.72 0.70 0.71 0.70 0.68 0.67 0.66 0.67 0.65 0.64 0.64 0.61 0.58 0.55 0.53 0.51 0.49 0.47 0.45 0.45 0.46 0.48 0.48 0.46 0.45 0.43 0.41 0.39 0.38 0.38 0.38 0.37 0.37 0.36 0.36 0.36 0.36 0.35 0.34
0.84 0.80 0.77 0.74 0.74 0.74 0.74 0.72 0.70 0.69 0.68 0.67 0.66 0.65 0.63 0.58 0.55 0.53 0.51 0.49 0.46 0.45 0.46 0.47 0.48 0.47 0.46 0.44 0.43 0.42 0.40 0.38 0.36 0.36 0.35 0.35 0.36 0.37 0.37 0.37 0.36 0.35
0.86 0.88 0.87 0.83 0.79 0.76 0.77 0.75 0.72 0.70 0.69 0.69 0.68 0.65 0.63 0.59 0.55 0.54 0.51 0.48 0.46 0.46 0.47 0.48 0.48 0.47 0.45 0.43 0.42 0.40 0.39 0.37 0.36 0.35 0.34 0.33 0.33 0.34 0.36 0.38 0.37 0.37
0.76 0.81 0.87 0.89 0.88 0.84 0.81 0.78 0.73 0.72 0.70 0.69 0.69 0.65 0.61 0.59 0.58 0.54 0.52 0.49 0.48 0.48 0.48 0.48 0.47 0.45 0.43 0.42 0.41 0.40 0.38 0.36 0.35 0.34 0.33 0.32 0.31 0.31 0.32 0.33 0.35 0.36
0.78 0.77 0.73 0.80 0.89 0.88 0.85 0.80 0.75 0.74 0.72 0.71 0.68 0.65 0.63 0.60 0.57 0.54 0.53 0.52 0.50 0.49 0.48 0.47 0.45 0.43 0.43 0.42 0.41 0.39 0.37 0.36 0.34 0.33 0.33 0.32 0.31 0.30 0.31 0.32 0.33 0.34
0.86 0.85 0.76 0.72 0.79 0.85 0.85 0.79 0.74 0.74 0.74 0.73 0.70 0.67 0.64 0.62 0.60 0.57 0.54 0.52 0.50 0.48 0.47 0.46 0.44 0.43 0.42 0.40 0.38 0.37 0.37 0.36 0.35 0.34 0.33 0.32 0.31 0.30 0.31 0.32 0.33 0.34
0.83 0.90 0.87 0.81 0.78 0.78 0.78 0.74 0.73 0.73 0.74 0.73 0.71 0.68 0.67 0.64 0.60 0.57 0.54 0.52 0.50 0.48 0.47 0.45 0.43 0.43 0.42 0.40 0.40 0.38 0.37 0.37 0.36 0.35 0.34 0.32 0.31 0.30 0.30 0.32 0.33 0.33
0.82 0.84 0.86 0.81 0.84 0.82 0.77 0.73 0.71 0.73 0.74 0.73 0.71 0.69 0.67 0.65 0.62 0.57 0.55 0.53 0.51 0.48 0.45 0.43 0.42 0.41 0.40 0.39 0.37 0.36 0.35 0.34 0.33 0.32 0.32 0.31 0.30 0.30 0.29 0.30 0.32 0.33
0.81 0.87 0.87 0.86 0.90 0.84 0.77 0.74 0.73 0.72 0.70 0.70 0.70 0.68 0.65 0.64 0.62 0.60 0.57 0.54 0.51 0.49 0.46 0.43 0.40 0.39 0.37 0.34 0.32 0.31 0.30 0.29 0.29 0.29 0.28 0.29 0.29 0.29 0.30 0.31 0.31 0.32
0.81 0.81 0.86 0.90 0.90 0.82 0.77 0.75 0.72 0.70 0.70 0.69 0.66 0.65 0.63 0.60 0.59 0.59 0.58 0.55 0.51 0.47 0.44 0.41 0.37 0.34 0.30 0.29 0.29 0.29 0.30 0.30 0.30 0.30 0.29 0.29 0.30 0.30 0.31 0.32 0.32 0.32
0.77 0.81 0.83 0.84 0.85 0.86 0.82 0.79 0.74 0.70 0.67 0.64 0.64 0.64 0.60 0.58 0.58 0.58 0.57 0.54 0.50 0.46 0.42 0.37 0.31 0.28 0.28 0.27 0.27 0.27 0.28 0.29 0.30 0.30 0.30 0.30 0.30 0.31 0.31 0.31 0.32 0.32
0.75 0.77 0.79 0.79 0.78 0.76 0.77 0.75 0.73 0.71 0.68 0.65 0.63 0.60 0.59 0.58 0.57 0.56 0.57 0.53 0.49 0.44 0.37 0.31 0.29 0.28 0.27 0.26 0.26 0.26 0.27 0.28 0.29 0.29 0.29 0.29 0.30 0.30 0.31 0.31 0.32 0.32
0.67 0.67 0.73 0.84 0.85 0.81 0.80 0.79 0.76 0.70 0.69 0.66 0.63 0.61 0.61 0.58 0.57 0.56 0.54 0.49 0.44 0.36 0.33 0.30 0.30 0.29 0.27 0.25 0.25 0.25 0.26 0.27 0.28 0.28 0.28 0.29 0.29 0.30 0.30 0.31 0.32 0.33
0.65 0.66 0.66 0.68 0.72 0.81 0.84 0.81 0.75 0.72 0.71 0.68 0.63 0.60 0.56 0.54 0.54 0.50 0.49 0.44 0.39 0.37 0.34 0.31 0.30 0.28 0.26 0.24 0.24 0.25 0.26 0.26 0.26 0.26 0.27 0.27 0.28 0.29 0.30 0.31 0.32 0.33
0.61 0.63 0.64 0.72 0.77 0.80 0.83 0.80 0.75 0.73 0.72 0.70 0.65 0.60 0.58 0.55 0.50 0.47 0.46 0.44 0.42 0.38 0.35 0.32 0.29 0.27 0.25 0.24 0.24 0.25 0.26 0.25 0.25 0.25 0.25 0.26 0.27 0.28 0.30 0.31 0.32 0.33
0.64 0.67 0.69 0.70 0.75 0.79 0.78 0.75 0.72 0.72 0.70 0.70 0.66 0.62 0.55 0.50 0.49 0.45 0.44 0.44 0.42 0.38 0.36 0.32 0.28 0.26 0.25 0.24 0.25 0.25 0.26 0.25 0.24 0.24 0.24 0.25 0.27 0.27 0.29 0.30 0.31 0.33
0.68 0.73 0.75 0.76 0.77 0.76 0.73 0.71 0.72 0.71 0.69 0.64 0.59 0.56 0.52 0.48 0.46 0.43 0.42 0.42 0.40 0.37 0.34 0.30 0.27 0.25 0.25 0.25 0.26 0.26 0.25 0.25 0.25 0.25 0.25 0.26 0.27 0.28 0.28 0.29 0.31 0.32
Wind_Speed
16 16 16 17 17 16 16 16 16 15 15 14 14 14 14 14 14 14 14 14 14 14 14 14 14 14 14 14 15 15 16 16 16 17 18 18 19 20 20 21 21 21
17 16 16 17 17 17 17 16 16 16 15 15 15 15 15 15 14 14 14 14 14 15 15 15 15 15 15 15 16 16 16 17 17 18 18 19 19 20 21 21 22 22
17 17 17 17 18 17 17 17 17 17 16 16 15 15 15 16 15 15 15 15 15 15 15 15 16 16 16 16 17 17 18 18 18 19 19 19 20 20 21 22 22 23
19 18 18 18 18 18 18 17 18 18 17 17 16 16 16 16 16 16 16 16 16 16 16 16 16 16 17 17 18 18 19 19 20 20 20 21 21 21 22 22 23 24
20 20 20 20 19 19 18 19 19 19 18 18 18 18 18 18 17 17 17 17 17 18 18 17 17 17 18 18 19 19 20 21 21 21 22 22 22 23 23 24 25 25
21 21 21 21 20 20 20 20 20 20 20 19 19 19 19 19 19 19 19 19 19 19 19 19 18 18 19 19 20 20 21 22 22 23 23 24 24 24 25 25 26 27
22 22 21 21 21 20 21 21 21 21 21 20 20 20 20 20 20 20 20 20 20 20 20 20 20 19 20 20 21 21 22 22 23 24 24 25 25 26 26 27 27 28
23 23 23 22 22 21 21 21 21 21 21 21 21 21 21 21 21 21 21 21 21 21 21 21 20 20 21 21 22 22 23 23 24 24 25 26 26 27 28 28 29 29
24 24 24 24 23 23 22 22 22 22 22 22 22 22 21 21 21 21 21 22 22 22 22 22 22 22 22 22 23 23 24 24 25 25 26 27 28 28 29 30 30 30
26 25 25 25 24 24 24 24 23 23 23 23 22 22 22 22 22 22 22 22 23 23 23 23 23 23 23 24 24 24 25 25 26 26 27 28 29 29 30 31 31 32
28 27 26 26 25 25 25 25 25 25 24 24 23 23 23 23 22 22 22 23 23 23 23 24 24 24 24 25 25 25 26 26 27 27 28 29 29 30 31 31 32 33
30 29 29 28 27 26 26 26 26 26 25 25 25 24 24 24 23 23 23 24 24 24 24 24 25 25 26 26 26 27 27 27 28 28 29 29 30 31 31 32 32 33
32 31 31 31 30 28 28 28 27 26 26 26 26 25 25 24 24 24 24 24 24 24 25 25 26 26 26 27 27 27 28 28 28 29 29 30 31 31 32 33 33 33
34 33 32 33 33 31 30 29 28 28 27 27 26 26 25 25 25 25 24 24 24 25 25 26 26 26 27 27 27 28 28 29 29 30 31 32 32 33 33 33 34 34
35 35 34 34 34 33 32 31 30 29 28 28 27 26 26 26 26 25 25 25 25 26 26 26 26 26 27 27 28 28 29 30 31 32 33 33 34 34 34 34 35 35
37 37 37 36 35 34 33 32 32 31 29 28 28 27 27 26 26 27 26 26 26 26 27 27 27 27 27 28 29 29 30 31 32 33 34 35 35 36 36 36 37 37
38 38 38 37 36 34 33 33 32 32 31 29 28 28 27 27 27 27 27 27 27 27 27 27 28 28 29 30 31 32 32 33 34 35 35 36 37 37 38 38 39 39
37 37 37 37 37 36 34 33 32 31 31 30 29 28 28 28 28 28 29 28 28 28 28 28 29 30 31 31 32 33 34 34 35 36 36 37 38 39 39 40 40 41
37 37 36 36 36 35 33 31 31 30 30 31 30 29 28 28 28 29 30 29 29 29 29 29 30 31 31 31 32 33 34 35 35 36 37 38 39 40 40 41 42 42
38 38 38 38 38 37 35 33 32 31 31 31 31 30 30 29 28 29 30 30 29 29 29 30 30 30 31 31 32 33 34 35 36 37 38 39 40 41 42 42 43 43
37 37 38 38 38 39 39 37 35 33 32 31 31 31 31 30 29 29 29 29 29 29 29 30 30 31 31 32 33 33 34 36 37 38 39 40 41 42 42 43 44 44
38 37 37 37 36 36 36 35 34 33 32 32 32 32 31 31 30 30 29 28 28 29 29 30 31 31 32 32 33 34 35 36 37 39 40 41 42 43 43 44 44 45
38 37 36 35 35 35 34 32 31 30 30 30 30 31 31 31 31 30 29 29 29 29 30 30 31 32 32 33 33 35 36 37 39 40 41 42 43 44 44 45 45 46
36 35 34 33 33 33 32 30 29 28 27 27 27 28 29 29 30 29 29 29 29 30 30 31 31 31 32 33 34 36 38 39 40 42 43 43 45 45 46 46 47 48
34 33 32 32 32 32 30 29 28 27 26 25 26 26 27 27 28 28 29 29 29 29 30 30 31 31 32 34 36 38 39 40 41 43 44 45 46 47 47 47 48 49
33 32 31 30 31 31 30 28 27 26 25 26 26 27 27 27 28 28 28 29 29 29 29 30 31 32 34 36 37 39 40 41 42 44 45 46 47 48 48 49 49 49
Wind_Direction
252 252 252 251 253 254 254 254 255 256 258 258 258 258 256 255 254 254 255 256 257 260 261 263 265 266 267 268 269 269 270 269 269 268 267 266 265 264 264 264 263 263
252 253 253 253 253 254 255 255 256 257 258 259 260 259 259 258 257 257 258 259 260 262 262 263 265 266 267 268 270 271 272 272 271 270 270 268 268 267 266 266 265 264
253 253 253 253 253 253 255 256 257 258 259 259 260 260 260 260 259 259 259 260 262 263 264 265 266 267 268 269 270 272 273 274 273 272 272 271 270 269 268 267 267 266
253 253 253 253 254 254 256 257 258 258 259 259 260 260 260 260 260 261 262 262 263 264 265 266 267 269 270 271 272 273 273 274 273 273 273 272 271 271 270 269 269 268
254 254 254 254 255 256 257 257 258 259 259 259 260 260 260 260 261 262 263 264 265 266 267 267 269 270 272 273 274 275 275 275 275 274 274 273 272 272 271 271 271 270
255 255 255 254 255 257 258 258 258 258 259 259 260 260 260 260 261 262 263 264 266 267 268 268 270 272 273 274 275 276 277 277 277 277 276 276 275 274 273 272 272 271
255 256 256 256 256 256 257 257 257 257 258 259 260 260 260 260 261 262 263 264 266 267 268 269 271 273 274 275 276 278 278 278 279 279 279 278 278 278 277 275 274 273
255 256 256 256 256 257 257 256 256 256 257 258 259 260 260 260 261 262 263 264 266 267 268 269 271 273 275 276 277 278 279 279 279 280 280 280 280 280 279 278 277 275
255 255 255 255 255 256 257 256 256 256 257 257 258 259 260 261 261 261 262 264 265 267 268 270 272 273 275 276 277 278 279 280 280 280 280 280 280 280 280 279 278 277
253 253 254 254 254 255 256 256 257 257 257 257 257 259 260 261 262 262 263 264 265 267 268 270 272 274 275 276 277 278 279 280 280 280 280 280 281 281 281 280 280 279
252 252 252 252 253 253 255 256 256 257 257 257 257 259 260 262 263 263 264 265 267 268 270 271 272 273 275 276 278 279 279 280 281 281 281 281 281 282 281 281 281 280
251 251 251 251 251 252 254 256 256 256 256 256 257 258 261 262 263 264 266 267 268 270 271 272 273 274 275 276 277 278 279 280 281 282 283 283 283 283 283 282 282 281
251 251 252 251 250 252 254 255 255 255 255 257 258 259 261 262 263 265 267 268 269 271 272 272 273 274 275 276 277 278 280 281 282 283 284 285 285 285 285 284 283 282
251 251 253 252 249 249 252 253 254 255 255 257 258 259 261 262 263 265 267 269 270 271 272 273 274 274 275 276 278 280 281 283 284 285 286 286 286 286 286 285 285 284
252 251 252 251 247 246 248 251 252 254 255 256 257 259 261 263 264 266 267 269 271 272 273 274 274 275 276 278 280 281 282 283 285 286 286 286 286 286 286 285 285 284
253 252 250 249 246 245 246 248 250 251 253 255 256 259 261 263 264 266 267 269 271 272 273 274 276 277 279 280 282 283 283 284 285 286 286 287 287 287 286 286 285 284
253 251 249 247 244 244 246 248 249 250 251 253 255 258 260 263 264 265 267 269 270 272 274 276 278 280 281 282 283 284 285 285 286 286 287 287 288 287 287 286 286 285
252 251 249 247 242 242 246 248 249 250 250 251 253 255 258 262 264 265 267 269 271 273 275 278 280 282 283 284 285 286 286 287 287 287 288 288 288 288 288 287 286 286
251 249 249 248 242 240 243 246 247 249 250 249 250 253 257 260 264 266 267 269 272 273 276 278 280 282 284 286 287 287 288 288 288 288 288 289 289 289 289 288 288 287
251 249 248 247 243 240 241 245 249 250 249 249 250 253 257 260 264 268 268 269 271 274 276 278 279 281 284 285 287 288 289 289 289 288 289 290 290 290 290 289 288 287
252 251 250 247 243 242 243 247 250 249 248 249 251 253 256 259 263 268 269 269 271 274 275 276 278 280 282 285 287 289 290 290 290 290 290 291 291 291 290 289 288 288
252 252 252 248 243 241 242 245 246 246 246 249 251 253 256 259 262 267 269 268 270 273 275 276 278 280 281 284 287 289 291 291 292 292 292 292 292 291 291 290 290 289
252 251 249 246 242 240 240 241 241 243 246 249 251 253 256 259 262 265 267 268 271 273 275 277 279 280 282 285 288 291 292 293 293 293 292 293 293 292 292 291 291 290
250 248 244 241 238 235 235 237 240 241 244 247 250 253 257 260 262 264 266 268 271 273 275 277 279 281 283 286 289 291 293 293 293 293 293 293 294 293 293 292 291 290
247 243 239 236 234 232 232 236 238 239 243 248 252 255 259 261 263 264 266 268 270 274 276 278 280 282 285 287 289 291 293 293 294 294 294 294 294 294 294 293 292 291
242 238 234 233 233 232 233 235 238 242 249 254 256 258 260 261 263 265 267 268 271 275 277 279 281 283 285 287 289 292 293 294 295 295 295 295 295 295 294 293 292 292